Miscellaneous Local Product
Issued by NWS Hastings, NE

Home | Current Version | Previous Version | Graphics & Text | Print | Product List | Glossary On
Versions: 1 2 3 4 5 6 7 8 9 10 11 12 13 14 15 16 17 18 19 20 21 22 23 24 25 26 27 28 29 30 31 32 33 34 35 36 37 38 39 40 41 42 43 44 45 46 47 48 49 50
000
AXUS43 KGID 290602
MISGRI

GID CWA HOURLY WEATHER ROUNDUP
NATIONAL WEATHER SERVICE HASTINGS NE
1200 AM CST THU JAN 29 2015

NOTE: "FAIR" INDICATES FEW OR NO CLOUDS BELOW 12,000 FEET WITH NO
SIGNIFICANT WEATHER AND/OR OBSTRUCTIONS TO VISIBILITY.

...SOUTH CENTRAL NEBRASKA...

CITY           SKY/WX    TMP DP  RH WIND       PRES   REMARKS
GRAND ISLAND   CLOUDY    41  32  70 NW31G45   30.10R
HASTINGS       MOCLDY    44  33  65 N32G40    30.08R
KEARNEY        CLOUDY    45  32  61 N26G39    30.12R
ORD            CLOUDY    36  30  79 N26G40    30.14R WCI  24
YORK           CLOUDY    43  34  70 N26G35    30.03R
AURORA         CLOUDY    42  33  69 N32G43    30.07R
LEXINGTON      CLOUDY    42  33  69 N32G40    30.17R
HOLDREGE       CLEAR     45  32  59 N26G36    30.09R
HEBRON         MOCLDY    51  32  49 N15G22    30.00R

...NEBRASKA PANHANDLE...

CITY           SKY/WX    TMP DP  RH WIND       PRES   REMARKS
CHADRON        PTCLDY    29  26  89 N5        30.33R WCI  24
ALLIANCE       CLEAR     30  26  85 N9        30.27R WCI  22
SCOTTSBLUFF    CLOUDY    40  28  62 W12       30.30R WCI  33
SIDNEY         MOCLDY    36  28  73 N9        30.29R WCI  29

...WESTERN AND NORTH CENTRAL NEBRASKA...

CITY           SKY/WX    TMP DP  RH WIND       PRES   REMARKS
VALENTINE      CLOUDY    37  27  67 NW21G35   30.23R WCI  26
AINSWORTH      CLOUDY    35  30  81 NW24G38   30.21R WCI  23
ONEILL         CLOUDY    36  31  85 NW31G38   30.15R WCI  22
BROKEN BOW     CLOUDY    38  30  73 N36G43    30.17R WCI  25
IMPERIAL       CLEAR     40  30  67 N21       30.22R WCI  30
NORTH PLATTE   CLOUDY    38  30  73 N23G35    30.22R WCI  27
MCCOOK         CLEAR     44  32  62 NW21      30.18R

...EASTERN NEBRASKA...

CITY           SKY/WX    TMP DP  RH WIND       PRES   REMARKS
NORFOLK        CLOUDY    37  30  75 N35G51    30.05R WCI  24
SO SIOUX CITY  CLOUDY    37  32  82 NW29G40   29.99R WCI  25
TEKAMAH        CLOUDY    38  32  79 NW35G49   30.01R WCI  25
COLUMBUS       CLOUDY    37  27  65 NW33G47   30.05R WCI  24
ALBION         CLOUDY    37  29  75 N25G37    30.09R WCI  25
OMAHA EPPLEY   CLOUDY    43  36  76 NW32G43   29.93R
OFFUTT AFB     CLOUDY    44  37  77 NW28G38   29.93R
MILLARD        CLOUDY    45  38  76 N16G29    29.95R
LINCOLN        CLOUDY    44  35  70 N28G45    30.00R
NEBRASKA CITY  CLOUDY    46  34  63 N22G30    29.91R
BEATRICE       MOCLDY    46  35  64 N26G41    29.99R
FALLS CITY     PTCLDY    47  37  68 NW20G35   29.90R

...NORTHERN KANSAS...

CITY           SKY/WX    TMP DP  RH WIND       PRES   REMARKS
GOODLAND       CLEAR     39  34  82 NW15      30.23R WCI  31
HILL CITY      CLEAR     47  33  58 NW15      30.16R
NORTON         CLEAR     41  28  60 W14       30.14R
PHILLIPSBURG   CLEAR     52  34  50 NW21      30.11R
SMITH CENTER   CLEAR     46  30  53 NW18G26   30.08R
BELOIT         CLEAR     48  30  49 NW8       30.04R
HAYS           CLEAR     48  28  46 NW18      30.12R
RUSSELL        CLEAR     50  32  50 NW21      30.07R
CONCORDIA      CLEAR     45  30  55 W13       30.03R
SALINA         CLEAR     49  30  48 NW10      30.02R
TOPEKA         CLEAR     53  34  48 NW15      29.92R



USA.gov is the U.S. government's official web portal to all federal, state and local government web resources and services.